Location: Casa Rossa
(45.2389°N, 12.2056°E)
Time: 03:27:04
(UTC+00:00)

Cosmos 1818 - Pass Details

Date: 14 July 2020
Orbit: 777 x 796 km, 65.0° (Epoch: 11 August)

Event Time Altitude Azimuth Distance (km) Brightness Sun altitude
Rises 02:59:46 0° 319° (NW) 3,308 6.8 -6.2°
Reaches altitude 10° 03:02:18 10° 313° (NW) 2,374 6.0 -5.8°
Maximum altitude 03:07:26 44° 243° (WSW) 1,094 3.9 -5.1°
Drops below altitude 10° 03:12:33 10° 173° (S) 2,354 5.7 -4.4°
Sets 03:15:03 0° 167° (SSE) 3,277 6.5 -4.1°
